sat.trackr.live / text

‹ back to catalog

STARLINK-36868

NORAD 68120 · 2026-044V

PAYLOAD ACTIVE UNKNOWN

§ Identity

Operator
Country
US
Launch date
2026-03-08
Launch site
AFWTR
Launch vehicle
Mass (kg)
RCS (m²)

Purposes: comms

External: N2YO · Heavens-Above · Gunter

§ Orbital elements

Epoch: 2026-05-25T03:32:35.040192Z

Period
93.90 min
Inclination
97.2841°
Eccentricity
0.0002072
Mean motion
15.33472951 rev/d
Perigee alt
464.0 km
Apogee alt
466.9 km
Semi-major
6,843.6 km
B*
1.0670e-3
RAAN
105.8283°
Arg perigee
96.9832°
Mean anomaly
263.1647°
Rev number
1,330

§ Raw data

STARLINK-368681 68120U 26044V   26145.14762778  .00034560  00000+0  10670-2 0  99962 68120  97.2841 105.8283 0002072  96.9832 263.1647 15.33472951 13301

JSON: /api/v1/satellites/68120 · /tle

For live sub-satellite position, see the globe view (requires WebGL).

§ Visibility from observer

Set your observer location to see the next 7 days of passes ≥ 10°. The values pass through the URL so the page stays shareable.

No JS? Fill the form by hand. The geolocation button needs JavaScript.